{"data":{"norad_id":63701,"epoch":"2026-09-20T15:23:02.462208Z","epoch_age_seconds":140414,"freshness":"FRESH","line1":"1 63701U 25087E   26263.64100072  .00015684  00000+0  51599-3 0  9993","line2":"2 63701  53.1642  32.8893 0001154  92.2796 267.8337 15.31707092 79062","mean_motion":15.31707092,"eccentricity":0.0001154,"inclination_deg":53.1642,"raan_deg":32.8893,"arg_perigee_deg":92.2796,"mean_anomaly_deg":267.8337,"bstar":0.00051599,"rev_number":7906,"period_min":94.012752667989,"perigee_km":469.92849645866,"apogee_km":471.50921238986,"semimajor_km":6848.8558544243,"source":"CELESTRAK","updated_at":"2026-09-21T09:00:35.062801Z"}}